User: anonymous   Login
Location: Ladysmith
(45.4630°N, 91.1040°W)
Time: 14:49:56
(UTC-05:00)
Language:

SO-67 - Orbit

View from above orbital plane
View from above orbital plane
View from above satellite
View from above satellite

Ground track
Ground track

The orbit data is extracted from the following two-line orbital elements,

1 35870U 09049F   18174.10212172  .00005765  00000-0  78296-4 0  9991
2 35870  97.0806 193.1892 0003373 104.1657 302.8563 15.58009575490890
Epoch (UTC): 23 June 2018 02:27:03
Eccentricity: 0.0003373
inclination: 97.0806°
perigee height: 391 km
apogee height: 396 km
right ascension of ascending node: 193.1892°
argument of perigee: 104.1657°
revolutions per day: 15.58009575
mean anomaly at epoch: 302.8563°
orbit number at epoch: 49089

The dashed part of the orbit path shows where the satellite is in the earth's shadow,  

DLR